User: anonymous   Login
Location: Newark
(40.8171°N, 74.0850°W)
Time: 07:01:11
(UTC+00:00)
Language:

ISS - Orbit

View from above orbital plane
View from above orbital plane
View from above satellite
View from above satellite

Ground track
Ground track

The orbit data is extracted from the following two-line orbital elements,

1 25544U 98067A   20157.99113387  .00016717  00000-0  10270-3 0  9058
2 25544  51.6439  43.8912 0001844  24.4215 335.7023 15.49413357 30279
Epoch (UTC): 05 June 2020 23:47:13
Eccentricity: 0.0001844
inclination: 51.6439°
perigee height: 417 km
apogee height: 420 km
right ascension of ascending node: 43.8912°
argument of perigee: 24.4215°
revolutions per day: 15.49413357
mean anomaly at epoch: 335.7023°
orbit number at epoch: 3027

The dashed part of the orbit path shows where the satellite is in the earth's shadow,  

DLR